[[{"header":{"parameterUnit":"m.s-1","parameterCategory":1,"la1":30.2991,"la2":30.254,"lo1":-89.0895,"lo2":-89.0444,"dy":0.0017,"dx":0.0017,"nx":28,"ny":28,"refTime":"2023-07-18T21:00:00:Z","depth":0,"parameterNumber":2,"parameterNumberName":"U-component_of_WINDS"},"data":[0,0,0,0,0,0,0,0,0,0,0,0,0,0,0,0,0,0,0,0,0,0,0,0,0,0,0,0,0,0,0,0,0,0,0,0,0,0,0,0,0,0,0,0,0,0,0,0,0,0,0,0,0,0,0,0,0,0,2.0173,2.0173,0,2.0192,2.0192,2.0193,2.022,2.0221,2.0221,2.0222,2.0242,2.0243,2.0243,0,0,0,0,0,0,0,0,0,0,0,0,0,2.0162,2.0162,2.0173,2.0173,2.0173,2.0192,2.0192,2.0193,2.022,2.0221,2.0221,2.0222,2.0242,2.0243,2.0243,0,0,0,0,0,0,0,0,0,0,0,0,0,2.0172,2.0162,2.0173,2.0189,2.0191,2.0192,2.0192,2.0193,2.022,2.0221,2.0221,2.0222,2.0242,2.0243,2.0243,2.023,0,0,2.0243,2.0243,0,0,0,0,0,0,0,0,2.0172,2.0173,2.0186,2.0188,2.019,2.0204,2.0196,2.0205,2.022,2.0209,2.0222,2.0222,2.0229,2.0231,2.0233,2.0231,2.0231,2.0243,2.0243,2.0243,2.0243,0,0,0,0,0,0,0,2.0171,2.0172,2.018,2.0187,2.0189,2.0196,2.0199,2.0198,2.0215,2.021,2.0212,2.0214,2.023,2.0232,2.0233,2.0232,2.0243,2.0243,2.0244,2.0244,2.0222,2.0221,0,0,0,0,0,0,2.0168,2.0171,2.018,2.0181,2.0182,2.0196,2.0199,2.0199,2.0215,2.0218,2.0213,2.0215,2.0232,2.0233,2.0234,2.0221,2.0243,2.0244,2.0244,2.0223,2.0222,2.0221,0,0,0,0,0,0,2.0167,2.0168,2.0179,2.0177,2.0179,2.0195,2.0196,2.0199,2.0201,2.0218,2.0221,2.0212,2.0232,2.0234,2.0231,2.0222,2.0244,2.0244,2.0223,2.0222,2.0221,2.0193,0,0,0,0,0,0,2.0167,2.0168,2.0162,2.0176,2.0179,2.0174,2.0195,2.0199,2.0201,2.0204,2.0217,2.022,2.0233,2.0231,2.0231,2.0222,2.0244,2.0224,2.0223,2.0222,2.0195,2.0191,2.0188,0,0,0,0,0,2.0166,2.0153,2.0162,2.0162,2.0172,2.0174,2.0175,2.019,2.02,2.0195,2.0206,2.022,2.0223,2.023,2.0231,2.0222,2.0225,2.0223,2.0222,2.0196,2.0192,2.0188,0,0,0,0,0,0,2.0137,2.0155,2.0165,2.0156,2.0163,2.0178,2.0172,2.0185,2.0189,2.0191,2.021,2.0213,2.0208,2.0215,2.0222,2.0211,2.0226,2.0225,2.0206,2.0202,2.0199,2.0197,2.0244,0,0,0,0,0,2.013,2.0129,2.0145,2.0136,2.0139,2.0155,2.0156,2.0167,2.0176,2.0179,2.019,2.0198,2.0201,2.0202,2.0206,2.0197,2.02,2.0191,2.0188,2.0185,2.0183,2.018,2.0176,2.0216,2.0216,2.0216,0,0,2.0114,2.0124,2.0122,2.013,2.0137,2.0137,2.0157,2.0156,2.0156,2.0179,2.0176,2.0185,2.0195,2.0189,2.0187,2.0195,2.0173,2.0183,2.0181,2.018,2.0178,2.0174,2.0171,2.0215,2.0215,2.0215,0,0,2.0085,2.0092,2.0086,2.0093,2.0103,2.0114,2.0113,2.0127,2.0133,2.0132,2.0149,2.015,2.0155,2.0162,2.0166,2.0143,2.0156,2.0144,2.0125,2.0122,2.0119,2.0116,2.0108,2.0105,2.0142,2.0142,2.0142,0,2.0064,2.0064,2.0081,2.0079,2.0082,2.0104,2.0098,2.0104,2.0115,2.0117,2.0126,2.0133,2.0142,2.0138,2.0133,2.0136,2.0135,2.0141,2.0118,2.0116,2.0113,2.0106,2.0103,2.0141,2.0141,2.0141,2.0141,0,2.0038,2.0038,2.0032,2.0042,2.0045,2.0041,2.0058,2.0059,2.0071,2.0082,2.0081,2.0092,2.0099,2.0099,2.011,2.0098,2.0102,2.0115,2.013,2.0108,2.0101,2.0098,2.0138,2.0139,2.0139,2.014,0,0,1.9989,2.0011,2.0008,2.0014,2.0028,2.0028,2.0026,2.0033,2.0034,2.0042,2.0041,2.0046,2.0057,2.0062,2.0075,2.0072,2.0054,2.0085,2.0085,2.0078,2.0042,2.0032,2.0028,2.0063,2.0063,2.0062,2.0041,0,1.9963,1.9959,1.9976,1.9968,1.9969,1.9991,1.9989,1.9998,2.0009,2.0012,2.0024,2.0027,2.0042,2.0045,2.0044,2.0056,2.0047,2.0058,2.0063,2.0063,2.0058,2.0025,2.0014,1.9993,2.0038,2.0038,2.0038,0,1.9931,1.9937,1.993,1.9946,1.9947,1.9945,1.9954,1.9956,1.9968,1.9976,1.9982,1.9997,1.9997,2.0013,2.0014,2.0022,2.0025,2.0032,2.0031,2.0031,2.0048,2.0023,1.9986,1.9983,2.0034,2.0034,2.0034,0,1.9896,1.9903,1.99,1.9904,1.9923,1.9921,1.9929,1.9941,1.9945,1.9953,1.9956,1.9964,1.9968,1.9975,1.9992,2.0001,1.9991,2.0008,1.9998,1.9998,1.9994,1.9993,1.9956,1.9997,1.9997,1.9997,1.9997,0,1.9864,1.9858,1.9884,1.9882,1.9877,1.9897,1.9892,1.9903,1.9914,1.9915,1.9935,1.9936,1.9959,1.9963,1.9976,1.9976,1.9978,1.9985,1.9988,1.9982,1.9981,1.9984,1.9985,1.9997,1.9997,1.9997,1.9997,0,1.9823,1.984,1.9838,1.9857,1.9861,1.9857,1.9873,1.9873,1.9886,1.9887,1.9889,1.9909,1.9915,1.9933,1.9943,1.9953,1.9948,1.9955,1.9943,1.9945,1.9935,1.9935,1.9897,1.9893,1.9937,1.9937,1.9936,0,1.9801,1.9797,1.9816,1.9818,1.9825,1.9828,1.9833,1.9853,1.9857,1.9871,1.9869,1.9877,1.9883,1.9892,1.9908,1.9916,1.9924,1.991,1.9925,1.9919,1.9923,1.9923,1.9923,1.9906,1.9905,1.9905,1.9904,0,1.976,1.9769,1.9774,1.9782,1.9787,1.9794,1.9803,1.9804,1.9827,1.9831,1.9837,1.9842,1.9853,1.9861,1.9872,1.9882,1.9897,1.99,1.9898,1.9891,1.9884,1.9888,1.9933,1.99,1.9901,1.9901,1.9901,1.9901,1.9727,1.9726,1.9739,1.9744,1.9753,1.9762,1.9762,1.9776,1.9781,1.9792,1.9804,1.9809,1.9823,1.984,1.9849,1.9854,1.9862,1.9859,1.9858,1.9857,1.9854,1.9885,1.9856,1.9856,1.9856,1.9856,1.9856,0,1.9687,1.9697,1.9702,1.9714,1.9719,1.9734,1.9745,1.9748,1.9752,1.9764,1.977,1.9778,1.9786,1.9804,1.9814,1.9814,1.9822,1.9816,1.9816,1.9818,1.9846,1.9847,1.981,1.981,1.981,1.981,1.981,1.981,1.9667,1.9665,1.9676,1.9679,1.969,1.9694,1.97,1.9708,1.9718,1.9725,1.9732,1.9744,1.9758,1.977,1.9778,1.9784,1.9786,1.9778,1.9785,1.9811,1.9816,1.982,1.982,1.9778,1.9778,1.9756,1.9756,1.9756]},{"header":{"parameterUnit":"m.s-1","parameterCategory":1,"la1":30.2991,"la2":30.254,"lo1":-89.0895,"lo2":-89.0444,"dy":0.0017,"dx":0.0017,"nx":28,"ny":28,"refTime":"2023-07-18T21:00:00:Z","depth":0,"parameterNumber":3,"parameterNumberName":"V-component_of_WINDS"},"data":[0,0,0,0,0,0,0,0,0,0,0,0,0,0,0,0,0,0,0,0,0,0,0,0,0,0,0,0,0,0,0,0,0,0,0,0,0,0,0,0,0,0,0,0,0,0,0,0,0,0,0,0,0,0,0,0,0,0,2.167,2.167,0,2.1658,2.1658,2.1657,2.1661,2.1662,2.1662,2.1662,2.1648,2.1647,2.1647,0,0,0,0,0,0,0,0,0,0,0,0,0,2.1693,2.1693,2.167,2.167,2.167,2.1658,2.1658,2.1657,2.1661,2.1662,2.1662,2.1662,2.1648,2.1647,2.1647,0,0,0,0,0,0,0,0,0,0,0,0,0,2.1682,2.1693,2.167,2.167,2.167,2.1658,2.1658,2.1657,2.1661,2.1662,2.1662,2.1662,2.1648,2.1647,2.1646,2.1633,0,0,2.1644,2.1643,0,0,0,0,0,0,0,0,2.1683,2.1681,2.167,2.167,2.167,2.1662,2.1661,2.1649,2.1661,2.1665,2.1662,2.1663,2.1652,2.1651,2.1648,2.1632,2.1631,2.1644,2.1643,2.1643,2.1642,0,0,0,0,0,0,0,2.1684,2.1682,2.1665,2.167,2.167,2.167,2.1669,2.1658,2.1656,2.1664,2.1665,2.1663,2.1652,2.1648,2.1647,2.1631,2.1644,2.1643,2.1642,2.1642,2.16,2.16,0,0,0,0,0,0,2.1685,2.1683,2.1665,2.1665,2.1678,2.1669,2.1668,2.1664,2.1656,2.1656,2.1663,2.1663,2.165,2.1648,2.1647,2.1628,2.1643,2.1642,2.1641,2.1601,2.16,2.1599,0,0,0,0,0,0,2.1685,2.1683,2.1666,2.1674,2.1671,2.1668,2.1664,2.1663,2.166,2.1655,2.1655,2.166,2.165,2.1648,2.1635,2.1628,2.1641,2.164,2.1601,2.16,2.16,2.1592,0,0,0,0,0,0,2.1686,2.1684,2.1679,2.1674,2.1671,2.1656,2.1663,2.1663,2.1658,2.1659,2.1652,2.1651,2.165,2.1637,2.1635,2.1627,2.164,2.1602,2.1601,2.16,2.1592,2.1591,2.1589,0,0,0,0,0,2.1687,2.1678,2.1679,2.1677,2.1666,2.1656,2.1654,2.1654,2.1658,2.1653,2.1649,2.1652,2.1629,2.1636,2.1633,2.1625,2.1602,2.1601,2.16,2.1593,2.1591,2.1589,0,0,0,0,0,0,2.1683,2.1677,2.1679,2.1668,2.1662,2.1656,2.165,2.1651,2.1644,2.1645,2.1644,2.1642,2.1629,2.1626,2.1633,2.1609,2.1616,2.1614,2.1612,2.161,2.1608,2.1609,2.1639,0,0,0,0,0,2.168,2.1674,2.1669,2.1659,2.1656,2.1654,2.1649,2.1649,2.1643,2.1641,2.1636,2.163,2.1621,2.1615,2.1607,2.1592,2.1589,2.1585,2.1583,2.1581,2.158,2.1569,2.1566,2.1595,2.1595,2.1595,0,0,2.1676,2.1672,2.1668,2.1658,2.1654,2.1645,2.1652,2.1643,2.1636,2.1639,2.1627,2.1623,2.1615,2.1601,2.1594,2.1598,2.1571,2.158,2.1579,2.1578,2.1567,2.1564,2.1562,2.1595,2.1595,2.1595,0,0,2.1663,2.166,2.1651,2.1646,2.1639,2.1637,2.1635,2.1628,2.1626,2.1613,2.1614,2.1606,2.1591,2.1585,2.158,2.1561,2.1562,2.1558,2.1549,2.1538,2.1536,2.1534,2.1525,2.1522,2.1557,2.1557,2.1557,0,2.1658,2.1646,2.1646,2.1636,2.1631,2.1633,2.1622,2.1618,2.1608,2.1604,2.1608,2.1588,2.1583,2.1566,2.1561,2.1557,2.1553,2.1559,2.1536,2.1534,2.1532,2.1524,2.1521,2.1556,2.1556,2.1556,2.1556,0,2.1639,2.1631,2.1624,2.1614,2.1608,2.1599,2.1595,2.1589,2.1588,2.1585,2.1571,2.1564,2.1554,2.155,2.155,2.1531,2.1533,2.1537,2.1544,2.1529,2.1521,2.1518,2.1555,2.1556,2.1556,2.1556,0,0,2.1625,2.1614,2.1611,2.1606,2.1597,2.159,2.1579,2.1568,2.1562,2.1555,2.1544,2.153,2.1533,2.1527,2.1525,2.1516,2.1499,2.152,2.152,2.1515,2.1476,2.1472,2.1469,2.15,2.1499,2.1499,2.1476,0,2.161,2.1592,2.159,2.1572,2.1563,2.1563,2.1553,2.1546,2.1542,2.1532,2.1528,2.1517,2.1522,2.1518,2.1509,2.1503,2.1491,2.1505,2.1488,2.1487,2.1489,2.1465,2.1462,2.1441,2.1473,2.1472,2.1472,0,2.1591,2.1583,2.1564,2.1555,2.1551,2.1542,2.1531,2.1522,2.1513,2.151,2.1502,2.1501,2.1488,2.1495,2.1475,2.1484,2.1477,2.1473,2.1472,2.147,2.1478,2.1461,2.1435,2.1431,2.1468,2.1468,2.1468,0,2.158,2.1564,2.1551,2.1546,2.1535,2.1529,2.1523,2.1514,2.1507,2.1497,2.1492,2.148,2.1473,2.1463,2.1458,2.1465,2.1437,2.1445,2.1433,2.1433,2.1427,2.1428,2.1398,2.1425,2.1425,2.1425,2.1425,0,2.1564,2.1552,2.1546,2.1537,2.1523,2.152,2.1506,2.1501,2.1492,2.1481,2.1481,2.147,2.1465,2.1453,2.1449,2.1431,2.1429,2.1425,2.1424,2.1424,2.1424,2.1419,2.142,2.1424,2.1424,2.1424,2.1424,0,2.155,2.1545,2.153,2.152,2.1517,2.1507,2.1497,2.1488,2.1483,2.1469,2.1466,2.1458,2.1443,2.1437,2.142,2.1417,2.1396,2.1397,2.1399,2.1399,2.1386,2.1387,2.1352,2.1346,2.1377,2.1377,2.1377,0,2.1539,2.153,2.1519,2.1511,2.1506,2.1495,2.1487,2.1482,2.1474,2.1461,2.1452,2.1438,2.1426,2.1403,2.1394,2.138,2.1379,2.1368,2.1377,2.1377,2.1377,2.1377,2.1375,2.1366,2.1366,2.1365,2.1365,0,2.1521,2.1518,2.1508,2.1495,2.1486,2.1476,2.1466,2.146,2.1453,2.1444,2.1429,2.142,2.1401,2.1385,2.137,2.1363,2.1362,2.1362,2.1358,2.1358,2.136,2.1357,2.1393,2.1363,2.1363,2.1363,2.1363,2.1364,2.1507,2.1498,2.1488,2.1475,2.1467,2.1457,2.1447,2.144,2.1428,2.1413,2.141,2.1393,2.1381,2.136,2.1352,2.1338,2.134,2.1335,2.1334,2.1332,2.1331,2.1362,2.1335,2.1335,2.1335,2.1335,2.1335,0,2.1487,2.148,2.1468,2.1454,2.1443,2.1444,2.1432,2.1422,2.1408,2.1397,2.1385,2.1366,2.135,2.134,2.1323,2.1313,2.1312,2.1309,2.1309,2.1307,2.133,2.1334,2.131,2.131,2.131,2.131,2.131,2.131,2.1475,2.1459,2.1455,2.1434,2.1426,2.141,2.1403,2.1393,2.1384,2.1363,2.135,2.1343,2.1331,2.1313,2.1298,2.1295,2.1288,2.1284,2.1281,2.1303,2.1306,2.1308,2.1312,2.1283,2.1283,2.1259,2.1259,2.1259]}]]